Time,TemperatureF,DewpointF,PressureIn,WindDirection,WindDirectionDegrees,WindSpeedMPH,WindSpeedGustMPH,Humidity,HourlyPrecipIn,Conditions,Clouds,dailyrainin,SolarRadiationWatts/m^2,SoftwareType,DateUTC
2013-02-07 00:48:00,32.3,30.2,29.42,SE,128,4.0,4.0,92,0.00,,,0.00,0,Wunderground v.1.15,2013-02-07 06:48:00,
2013-02-07 02:23:00,32.4,30.1,29.40,SSE,153,4.0,7.0,91,0.00,,,0.00,0,Wunderground v.1.15,2013-02-07 08:23:00,
2013-02-07 02:33:00,32.5,29.9,29.40,SSE,167,3.0,4.0,90,0.00,,,0.00,0,Wunderground v.1.15,2013-02-07 08:33:00,
2013-02-07 02:43:00,32.6,30.0,29.40,SSE,151,3.0,3.0,90,0.00,,,0.00,0,Wunderground v.1.15,2013-02-07 08:43:00,
2013-02-07 02:53:00,32.6,30.0,29.41,SE,132,1.0,2.0,90,0.00,,,0.00,0,Wunderground v.1.15,2013-02-07 08:53:00,
2013-02-07 03:03:00,32.6,30.0,29.41,SE,132,1.0,1.0,90,0.00,,,0.00,0,Wunderground v.1.15,2013-02-07 09:03:00,
2013-02-07 03:13:00,32.6,30.3,29.40,SE,132,1.0,2.0,91,0.00,,,0.00,0,Wunderground v.1.15,2013-02-07 09:13:00,
2013-02-07 03:43:00,32.8,30.2,29.42,SE,132,1.0,1.0,90,0.00,,,0.00,0,Wunderground v.1.15,2013-02-07 09:43:00,
2013-02-07 04:13:00,32.8,30.5,29.42,SE,132,0.0,0.0,91,0.00,,,0.00,0,Wunderground v.1.15,2013-02-07 10:13:00,
2013-02-07 05:13:00,32.6,30.8,29.40,ESE,115,6.0,7.0,93,0.00,,,0.00,0,Wunderground v.1.15,2013-02-07 11:13:00,
2013-02-07 05:28:00,32.5,30.7,29.39,ESE,115,6.0,6.0,93,0.00,,,0.00,0,Wunderground v.1.15,2013-02-07 11:28:00,
2013-02-07 05:47:00,32.6,30.8,29.39,ESE,118,4.0,4.0,93,0.00,,,0.00,0,Wunderground v.1.15,2013-02-07 11:47:00,
2013-02-07 06:02:00,32.6,30.8,29.38,ESE,123,5.0,7.0,93,0.00,,,0.00,0,Wunderground v.1.15,2013-02-07 12:02:00,
2013-02-07 06:49:00,32.5,31.0,29.36,ESE,113,7.0,7.0,94,0.00,,,0.01,0,Wunderground v.1.15,2013-02-07 12:49:00,
2013-02-07 07:14:00,32.7,31.2,29.36,SE,132,4.0,4.0,94,0.00,,,0.01,5,Wunderground v.1.15,2013-02-07 13:14:00,
2013-02-07 07:28:00,32.9,31.1,29.37,ESE,111,4.0,5.0,93,0.00,,,0.01,16,Wunderground v.1.15,2013-02-07 13:28:00,
2013-02-07 07:38:00,33.0,31.2,29.37,SE,146,4.0,4.0,93,0.00,,,0.01,12,Wunderground v.1.15,2013-02-07 13:38:00,
2013-02-07 08:43:00,33.5,31.4,29.35,ESE,117,3.0,4.0,92,0.00,,,0.01,79,Wunderground v.1.15,2013-02-07 14:43:00,
2013-02-07 08:59:00,33.7,31.9,29.35,SE,128,4.0,4.0,93,0.00,,,0.00,84,Wunderground v.1.15,2013-02-07 14:59:00,
2013-02-07 09:53:00,34.6,32.8,29.33,SE,132,3.0,4.0,93,0.00,,,0.00,58,Wunderground v.1.15,2013-02-07 15:53:00,
2013-02-07 10:22:00,34.6,32.5,29.33,SSE,150,3.0,4.0,92,0.00,,,0.00,39,Wunderground v.1.15,2013-02-07 16:22:00,
2013-02-07 10:33:00,34.9,32.8,29.32,SSE,150,2.0,3.0,92,0.00,,,0.00,51,Wunderground v.1.15,2013-02-07 16:33:00,
2013-02-07 11:27:00,35.5,33.4,29.30,ESE,115,1.0,1.0,92,0.00,,,0.00,88,Wunderground v.1.15,2013-02-07 17:27:00,
2013-02-07 11:37:00,35.7,33.9,29.29,ESE,115,0.0,0.0,93,0.00,,,0.00,62,Wunderground v.1.15,2013-02-07 17:37:00,
2013-02-07 12:08:00,36.4,34.6,29.27,ESE,115,0.0,0.0,93,0.00,,,0.00,67,Wunderground v.1.15,2013-02-07 18:08:00,
2013-02-07 12:23:00,37.5,35.9,29.26,ESE,115,0.0,1.0,94,0.00,,,0.00,118,Wunderground v.1.15,2013-02-07 18:23:00,
2013-02-07 14:18:00,40.3,38.4,29.21,ESE,109,0.0,1.0,93,0.00,,,0.00,25,Wunderground v.1.15,2013-02-07 20:18:00,
2013-02-07 14:28:00,40.0,38.1,29.20,SE,127,1.0,1.0,93,0.00,,,0.00,25,Wunderground v.1.15,2013-02-07 20:28:00,
2013-02-07 14:38:00,39.8,37.9,29.20,SSE,148,1.0,2.0,93,0.00,,,0.00,25,Wunderground v.1.15,2013-02-07 20:38:00,
2013-02-07 14:43:00,39.7,37.8,29.19,SSE,148,1.0,2.0,93,0.00,,,0.00,19,Wunderground v.1.15,2013-02-07 20:43:00,
2013-02-07 14:58:00,39.1,37.5,29.18,SSE,148,0.0,1.0,94,0.00,,,0.00,23,Wunderground v.1.15,2013-02-07 20:58:00,
2013-02-07 15:07:00,38.9,37.3,29.19,SSE,148,1.0,1.0,94,0.00,,,0.00,16,Wunderground v.1.15,2013-02-07 21:07:00,
2013-02-07 15:17:00,39.1,37.8,29.19,SSE,158,1.0,1.0,95,0.00,,,0.00,16,Wunderground v.1.15,2013-02-07 21:17:00,
2013-02-07 15:28:00,39.2,37.9,29.18,SSE,158,1.0,1.0,95,0.00,,,0.00,11,Wunderground v.1.15,2013-02-07 21:28:00,
2013-02-07 15:43:00,39.3,38.0,29.17,SSE,158,0.0,1.0,95,0.00,,,0.00,18,Wunderground v.1.15,2013-02-07 21:43:00,
2013-02-07 15:52:00,39.3,38.0,29.17,SSE,158,0.0,0.0,95,0.00,,,0.00,11,Wunderground v.1.15,2013-02-07 21:52:00,
2013-02-07 15:58:00,39.3,38.0,29.17,SSE,158,0.0,0.0,95,0.00,,,0.00,14,Wunderground v.1.15,2013-02-07 21:58:00,
2013-02-07 16:13:00,38.9,37.6,29.17,SSE,158,0.0,0.0,95,0.00,,,0.00,5,Wunderground v.1.15,2013-02-07 22:13:00,
2013-02-07 16:28:00,38.8,37.8,29.17,SSE,158,0.0,0.0,96,0.00,,,0.00,0,Wunderground v.1.15,2013-02-07 22:28:00,
2013-02-07 16:43:00,38.9,37.9,29.17,SSE,158,0.0,0.0,96,0.00,,,0.00,0,Wunderground v.1.15,2013-02-07 22:43:00,
2013-02-07 16:49:00,38.8,37.8,29.17,SSE,158,0.0,0.0,96,0.00,,,0.00,0,Wunderground v.1.15,2013-02-07 22:49:00,
2013-02-07 16:59:00,38.7,37.7,29.17,SSE,158,0.0,0.0,96,0.00,,,0.00,0,Wunderground v.1.15,2013-02-07 22:59:00,
2013-02-07 17:08:00,38.6,37.6,29.17,SSE,158,0.0,0.0,96,0.00,,,0.00,0,Wunderground v.1.15,2013-02-07 23:08:00,
2013-02-07 17:28:00,38.1,37.1,29.17,SSE,158,0.0,0.0,96,0.00,,,0.00,0,Wunderground v.1.15,2013-02-07 23:28:00,
2013-02-07 17:38:00,37.9,36.6,29.16,SSE,158,0.0,0.0,95,0.00,,,0.00,0,Wunderground v.1.15,2013-02-07 23:38:00,
2013-02-07 17:53:00,37.5,36.5,29.17,SSE,158,0.0,0.0,96,0.00,,,0.00,0,Wunderground v.1.15,2013-02-07 23:53:00,
2013-02-07 18:23:00,36.5,35.5,29.19,SSE,158,0.0,1.0,96,0.00,,,0.00,0,Wunderground v.1.15,2013-02-08 00:23:00,
2013-02-07 19:13:00,35.5,34.5,29.20,SSE,158,0.0,0.0,96,0.00,,,0.00,0,Wunderground v.1.15,2013-02-08 01:13:00,
2013-02-07 19:23:00,35.3,34.3,29.20,SSE,158,0.0,0.0,96,0.00,,,0.00,0,Wunderground v.1.15,2013-02-08 01:23:00,
2013-02-07 19:33:00,35.1,34.1,29.20,SSE,161,0.0,0.0,96,0.00,,,0.00,0,Wunderground v.1.15,2013-02-08 01:33:00,
2013-02-07 20:13:00,34.1,33.1,29.20,SSE,161,0.0,0.0,96,0.00,,,0.00,0,Wunderground v.1.15,2013-02-08 02:13:00,
2013-02-07 20:23:00,33.9,32.9,29.21,SSE,159,0.0,0.0,96,0.00,,,0.00,0,Wunderground v.1.15,2013-02-08 02:23:00,
2013-02-07 20:37:00,33.6,32.6,29.21,SSE,159,0.0,0.0,96,0.00,,,0.00,0,Wunderground v.1.15,2013-02-08 02:37:00,
2013-02-07 20:48:00,33.5,32.5,29.21,SW,221,0.0,0.0,96,0.00,,,0.00,0,Wunderground v.1.15,2013-02-08 02:48:00,
2013-02-07 20:58:00,33.4,32.4,29.22,NNW,348,1.0,1.0,96,0.00,,,0.00,0,Wunderground v.1.15,2013-02-08 02:58:00,
2013-02-07 21:43:00,33.4,32.6,29.23,NNW,344,0.0,3.0,97,0.00,,,0.00,0,Wunderground v.1.15,2013-02-08 03:43:00,
2013-02-07 22:23:00,33.4,32.6,29.24,NNW,343,1.0,1.0,97,0.00,,,0.00,0,Wunderground v.1.15,2013-02-08 04:23:00,
2013-02-07 22:44:00,33.3,32.5,29.25,North,355,1.0,1.0,97,0.00,,,0.00,0,Wunderground v.1.15,2013-02-08 04:44:00,
2013-02-07 23:13:00,33.3,32.5,29.25,NNE,22,1.0,2.0,97,0.00,,,0.00,0,Wunderground v.1.15,2013-02-08 05:13:00,